TimeCST,TemperatureF,Dew PointF,Humidity,Sea Level PressureIn,VisibilityMPH,Wind Direction,Wind SpeedMPH,Gust SpeedMPH,PrecipitationIn,Events,Conditions,WindDirDegrees,DateUTC
12:54 AM,50.0,32.0,50,30.13,10.0,SSE,9.2,-,N/A,,Partly Cloudy,160,2011-11-19 06:54:00
1:54 AM,48.2,33.8,58,30.13,10.0,SSE,8.1,-,N/A,,Clear,150,2011-11-19 07:54:00
2:54 AM,46.9,34.0,61,30.11,10.0,SE,8.1,-,N/A,,Clear,140,2011-11-19 08:54:00
3:54 AM,48.0,37.0,66,30.12,10.0,SE,6.9,-,N/A,,Partly Cloudy,130,2011-11-19 09:54:00
4:54 AM,48.0,37.0,66,30.11,10.0,SSE,10.4,-,N/A,,Partly Cloudy,160,2011-11-19 10:54:00
5:54 AM,46.9,37.9,71,30.12,10.0,SSE,9.2,-,N/A,,Scattered Clouds,160,2011-11-19 11:54:00
6:54 AM,48.0,39.9,74,30.12,10.0,South,12.7,-,N/A,,Mostly Cloudy,170,2011-11-19 12:54:00
7:54 AM,52.0,42.1,69,30.11,10.0,SSE,11.5,-,N/A,,Mostly Cloudy,160,2011-11-19 13:54:00
8:54 AM,57.9,44.1,60,30.11,10.0,South,15.0,23.0,N/A,,Mostly Cloudy,170,2011-11-19 14:54:00
9:54 AM,62.1,46.9,58,30.10,10.0,South,19.6,25.3,N/A,,Mostly Cloudy,180,2011-11-19 15:54:00
10:54 AM,66.0,48.0,52,30.08,10.0,South,24.2,29.9,N/A,,Mostly Cloudy,180,2011-11-19 16:54:00
11:54 AM,68.0,48.9,50,30.07,10.0,South,20.7,28.8,N/A,,Mostly Cloudy,190,2011-11-19 17:54:00
12:54 PM,69.1,50.0,51,30.04,10.0,South,20.7,25.3,N/A,,Overcast,180,2011-11-19 18:54:00
1:54 PM,69.8,51.8,53,30.03,10.0,South,16.1,23.0,N/A,,Overcast,190,2011-11-19 19:54:00
2:54 PM,71.1,52.0,51,30.02,10.0,South,19.6,25.3,N/A,,Mostly Cloudy,190,2011-11-19 20:54:00
3:54 PM,70.0,53.1,55,30.02,10.0,South,17.3,-,N/A,,Mostly Cloudy,170,2011-11-19 21:54:00
4:54 PM,68.0,53.1,59,30.03,10.0,SSE,8.1,-,N/A,,Mostly Cloudy,160,2011-11-19 22:54:00
5:54 PM,68.0,51.8,56,30.05,10.0,South,11.5,-,N/A,,Mostly Cloudy,170,2011-11-19 23:54:00
6:54 PM,68.0,52.0,56,30.06,10.0,SSE,12.7,-,N/A,,Overcast,160,2011-11-20 00:54:00
7:54 PM,66.9,52.0,59,30.06,10.0,SSE,11.5,-,N/A,,Mostly Cloudy,160,2011-11-20 01:54:00
8:54 PM,64.9,52.0,63,30.08,10.0,SSE,10.4,-,N/A,,Mostly Cloudy,160,2011-11-20 02:54:00
9:54 PM,64.0,53.1,67,30.07,10.0,South,11.5,-,N/A,,Scattered Clouds,170,2011-11-20 03:54:00
10:54 PM,63.0,54.0,72,30.07,10.0,South,16.1,-,N/A,,Scattered Clouds,170,2011-11-20 04:54:00
11:54 PM,62.6,55.4,77,30.09,10.0,South,16.1,-,N/A,,Mostly Cloudy,170,2011-11-20 05:54:00